Flag for Gibraltar Weather past 2 weeks in Gibraltar, Gibraltar

Now
70 °F

Scattered clouds.


Feels Like: 70 °F
Forecast: 63 / 65 °F
Wind: 17 mph from East

Location: Gibraltar Airport

Current Time: May 23, 2015 at 5:00:34 PM

Latest Report: May 23, 2015 at 3:50 PM


Visibility: N/A

Pressure: 29.98 "Hg

Humidity: 64%

Dew point: 57 °F

Location of GibraltarLocation

Historic Weather in Gibraltar — Graph

°F

Gibraltar temperature yesterday

Maximum temperature yesterday: 70 °F (at 1:50 PM)
Minimum temperature yesterday: 64 °F (at 12:50 AM)
Average temperature yesterday: 66 °F

Past Weeks' High & Low Weather Summary

 TemperatureHumidityPressure
High90 °F (May 14, 3:50 PM)100% (May 13, 1:50 AM)30.27 "Hg (May 13, 1:50 AM)
Low61 °F (May 9, 7:50 AM)18% (May 14, 3:50 PM)29.83 "Hg (May 19, 5:50 AM)
Average68 °F74%30.09 "Hg
* Reported May 8 3:50 PM — May 23 3:50 PM, Gibraltar, Weather by CustomWeather, © 2015

Note: Actual official high and low records may vary slightly from our data, if they occured in-between our weather recording intervals... More about our weather records

Advertising

Gibraltar weather history for previous 24 hours

 ConditionsComfort  
Time TempWeatherWind HumidityBarometerVisibility
3:50 PM
Sat, May 23
70 °FScattered clouds.17 mph64%29.98 "HgN/A
2:50 PM70 °FPassing clouds.17 mph64%30.01 "HgN/A
1:50 PM70 °FScattered clouds.16 mph64%30.01 "HgN/A
12:50 PM70 °FPassing clouds.17 mph64%30.04 "HgN/A
11:50 AM70 °FScattered clouds.16 mph64%30.04 "HgN/A
10:50 AM68 °FScattered clouds.16 mph73%30.01 "HgN/A
9:50 AM66 °FScattered clouds.17 mph73%30.01 "HgN/A
8:50 AM66 °FScattered clouds.18 mph78%30.01 "HgN/A
7:50 AM64 °FPassing clouds.20 mph83%30.01 "HgN/A
6:50 AM64 °FPassing clouds.23 mph83%30.01 "HgN/A
5:50 AM64 °FPassing clouds.22 mph83%30.01 "HgN/A
4:50 AM64 °FPartly cloudy.22 mph83%30.01 "HgN/A
3:50 AM64 °FPassing clouds.21 mph83%30.01 "HgN/A
2:50 AM64 °FPassing clouds.20 mph83%30.04 "HgN/A
1:50 AM64 °FPassing clouds.20 mph83%30.04 "HgN/A
12:50 AM64 °FClear.20 mph83%30.07 "HgN/A
11:50 PM
Fri, May 22
64 °FClear.21 mph83%30.07 "HgN/A
10:50 PM64 °FPassing clouds.14 mph83%30.07 "HgN/A
9:50 PM66 °FPassing clouds.13 mph78%30.07 "HgN/A
8:50 PM66 °FPassing clouds.9 mph78%30.07 "HgN/A
7:50 PM68 °FPassing clouds.12 mph73%30.04 "HgN/A
6:50 PM68 °FPassing clouds.15 mph73%30.07 "HgN/A
5:50 PM70 °FPassing clouds.22 mph69%30.07 "HgN/A
Weather by CustomWeather, © 2015

See weather overviewHow to use our weather pages